Temperature
22 22 22 22 19 18 20 21 21 22 22 22 21 21 20 19 18 18 18 18 18 18 18 18 18 18 18 18 18 18 18 18 18 18 18 18 18 18 18 18 17 18 18 17 17 18 18 17 17
22 22 22 21 18 18 20 21 21 22 22 22 21 21 20 19 19 18 18 18 18 18 18 18 18 18 18 18 18 18 18 17 17 17 18 18 18 17 17 17 17 17 17 17 17 17 17 17 17
22 22 22 18 19 19 21 21 21 22 23 22 21 21 20 19 19 19 19 18 18 18 18 18 18 18 18 18 18 18 17 17 17 17 18 17 17 17 17 17 17 17 17 17 17 17 17 17 17
22 22 22 19 20 20 21 21 22 22 22 22 21 20 19 19 19 19 19 19 18 18 18 18 18 18 18 18 17 17 17 17 17 17 17 17 17 17 17 17 17 17 17 17 17 17 17 17 17
23 22 19 19 20 21 21 22 23 22 22 21 20 19 19 19 19 19 19 19 19 18 18 18 18 18 18 17 17 17 17 17 17 17 17 17 17 17 17 17 17 17 17 17 17 17 17 17 17
23 20 19 19 21 21 22 23 23 21 21 21 20 19 19 19 19 19 19 19 19 18 18 18 18 18 17 17 17 17 17 17 17 17 17 17 17 17 17 17 17 17 17 17 17 17 16 16 16
22 19 20 20 20 21 22 23 22 21 21 21 21 19 19 19 19 19 19 19 19 18 18 18 18 18 17 17 17 17 17 17 17 17 17 17 17 17 16 17 17 17 17 16 16 16 16 16 16
23 19 20 20 20 21 23 23 23 22 22 22 21 19 19 19 19 19 19 19 19 18 18 18 18 17 17 17 17 17 17 17 17 17 16 16 16 16 16 16 16 16 16 16 16 16 16 16 16
24 19 19 20 20 21 23 23 23 23 22 22 21 21 20 20 19 19 19 19 18 18 18 18 18 17 17 17 17 17 17 17 16 16 16 16 16 16 16 16 16 16 16 16 16 16 16 16 16
23 19 21 22 21 21 22 23 23 22 21 21 21 21 20 20 19 19 19 19 19 18 18 18 18 17 17 17 17 17 17 16 16 16 16 16 16 16 16 16 16 16 16 16 16 16 16 16 16
22 21 22 23 23 23 23 23 23 21 20 20 20 20 20 20 19 19 19 19 19 18 18 18 18 17 17 17 17 17 17 16 16 16 16 16 16 16 16 16 16 16 16 16 16 16 16 16 16
22 22 23 23 24 23 23 23 22 22 22 22 21 21 20 20 20 19 19 19 19 18 18 18 18 17 17 17 17 17 16 16 16 16 16 16 16 16 16 16 16 16 16 16 16 15 15 15 15
22 22 23 23 24 23 23 22 22 22 22 22 21 21 20 20 20 19 19 19 19 18 18 18 18 17 17 17 17 17 16 16 16 16 16 16 16 16 16 16 16 16 15 15 15 15 15 15 15
23 23 23 23 23 23 22 22 22 22 22 21 21 20 20 20 20 19 19 19 19 18 18 18 18 17 17 17 17 17 16 16 16 16 16 16 16 16 16 16 16 15 15 15 15 15 15 15 15
24 22 22 22 23 22 22 20 20 22 21 21 21 20 20 20 20 19 19 19 19 18 18 18 18 17 17 17 17 16 16 16 16 16 16 16 16 16 16 16 16 15 15 15 15 15 15 15 15
22 21 20 21 22 22 21 19 20 22 21 20 20 20 20 20 19 19 19 19 19 18 18 18 17 17 17 17 17 16 16 16 16 16 16 16 16 16 16 16 15 15 15 15 15 15 15 15 15
20 19 20 21 21 21 20 19 20 21 21 20 20 20 20 20 19 19 19 19 19 18 18 18 17 17 17 17 16 16 16 16 16 16 16 16 16 16 16 16 15 15 15 15 15 15 15 15 14
20 20 20 20 21 21 20 19 20 21 20 20 20 20 20 20 19 19 19 19 18 18 18 18 17 17 17 17 16 16 16 16 16 16 16 16 16 16 16 16 15 15 15 15 15 15 15 14 14
21 21 20 21 21 21 19 19 19 20 20 19 19 19 19 19 19 19 19 19 18 18 18 17 17 17 17 17 16 16 16 16 16 16 16 16 16 16 16 15 15 15 15 15 15 15 14 14 14
21 20 20 21 21 21 19 19 19 19 19 20 19 19 19 19 19 19 19 19 18 18 18 18 17 17 17 16 16 16 16 16 16 16 16 16 16 16 16 15 15 15 15 15 15 15 14 14 14
21 20 20 20 21 20 20 19 18 19 19 19 19 19 19 19 19 19 19 18 18 18 18 17 17 17 17 16 16 16 16 16 16 15 15 15 16 16 16 15 15 15 15 15 15 15 14 14 14
20 21 21 21 19 18 19 17 17 18 18 18 18 18 19 19 19 19 18 18 18 18 17 17 17 17 17 16 16 16 16 16 16 16 15 15 15 15 15 15 15 15 15 15 15 15 14 14 14
21 22 21 21 19 18 18 17 17 17 17 17 17 18 18 19 19 18 18 18 18 18 17 17 17 17 16 16 16 16 16 16 16 15 15 15 15 15 15 15 15 15 15 15 15 15 14 14 14
21 20 19 17 17 17 18 17 17 16 17 17 18 18 18 18 18 18 18 18 18 17 17 17 17 17 16 16 16 16 16 16 15 15 15 15 15 15 15 15 15 15 15 15 15 15 15 15 14
20 17 17 17 16 16 18 17 17 17 18 18 18 18 18 18 18 18 18 17 17 17 17 17 17 17 16 16 16 16 16 15 15 15 15 15 15 15 15 15 15 15 15 15 15 15 15 15 14
19 17 16 17 17 17 17 17 17 18 19 19 18 18 18 18 18 18 18 17 17 17 17 17 17 16 16 16 16 16 16 15 15 15 15 15 15 15 15 15 15 15 15 15 15 15 15 15 15
19 17 17 16 17 17 16 17 18 18 17 17 17 17 18 18 18 18 17 17 17 17 17 17 16 16 16 16 16 16 15 15 15 15 15 15 15 15 15 15 15 15 15 15 15 15 15 15 15
20 18 16 16 17 16 17 17 16 17 17 17 16 17 17 18 18 17 17 17 17 17 16 16 16 16 16 16 16 15 15 15 15 15 15 15 15 15 15 15 15 15 15 15 15 15 15 15 15
19 18 16 15 15 15 16 16 17 17 16 16 16 17 17 17 17 17 17 17 17 17 16 16 16 16 16 16 16 15 15 15 15 15 15 15 15 15 15 15 15 15 15 15 15 15 15 15 15
18 17 16 15 15 15 14 15 17 17 17 17 17 17 17 17 17 17 17 17 17 16 16 16 16 16 16 16 15 15 15 15 15 15 15 15 15 15 15 15 15 15 15 15 15 15 15 15 15
Wind_Speed
3 2 2 3 6 6 4 1 3 5 5 5 8 10 8 6 4 4 3 7 9 7 8 9 9 9 9 9 9 9 10 10 9 9 9 9 9 9 9 9 9 9 9 9 9 9 8 8 9
1 0 3 5 6 5 2 1 5 5 6 7 8 8 7 6 4 5 3 8 10 9 9 9 10 10 9 9 9 9 9 9 9 9 9 8 8 8 8 8 9 9 9 9 9 8 8 8 8
1 1 4 5 4 4 3 2 6 5 6 5 5 5 5 4 4 4 6 11 10 8 9 10 11 10 9 9 9 8 8 8 9 8 8 8 8 8 8 8 9 9 9 8 8 8 8 8 8
2 4 5 6 5 2 4 4 6 6 6 6 6 6 4 2 4 6 9 11 10 7 8 10 11 10 9 9 8 8 8 8 8 8 8 8 8 8 8 8 8 8 8 8 8 8 9 9 10
3 5 6 5 4 3 4 4 6 6 4 5 7 6 3 2 6 9 10 10 9 7 7 9 10 10 10 9 8 8 8 7 7 7 7 7 7 8 7 7 8 8 8 8 8 9 9 10 11
4 5 5 4 4 3 3 5 7 8 7 7 7 6 2 3 7 8 8 8 8 7 7 8 10 10 9 9 8 8 7 7 6 6 6 6 6 7 7 7 8 8 8 8 8 9 10 11 11
4 4 3 5 4 3 3 5 7 7 6 5 6 6 3 3 6 8 8 8 7 7 6 6 7 8 8 9 8 7 7 6 6 6 6 6 6 6 7 7 7 8 8 8 9 10 10 11 11
5 4 3 2 4 2 2 4 6 7 5 5 6 7 5 5 6 7 7 6 6 5 5 5 6 6 6 6 7 7 7 6 5 5 5 5 5 6 6 6 7 8 8 8 9 10 10 10 11
4 5 2 3 5 3 3 6 3 5 7 5 4 5 6 8 8 8 6 4 4 4 4 5 5 5 5 5 6 6 6 5 4 4 5 5 4 4 5 6 6 7 8 8 8 9 10 10 10
5 4 2 3 6 5 4 6 5 5 6 5 5 5 7 8 8 8 6 5 4 4 4 5 5 5 5 5 4 3 3 3 3 4 4 5 5 4 5 5 6 6 6 7 8 8 9 9 8
4 5 3 3 5 6 5 4 4 8 4 5 8 9 8 7 7 7 6 5 5 5 5 4 4 5 5 3 3 2 2 3 3 4 5 5 4 4 5 4 4 6 7 7 7 7 7 8 7
4 3 4 4 5 6 5 5 4 5 5 7 10 11 8 8 7 7 6 5 5 4 4 4 4 4 4 4 3 3 2 3 3 4 5 5 3 3 4 3 4 5 6 6 6 6 7 8 8
4 3 4 5 6 6 7 5 5 3 4 6 9 9 8 8 6 5 6 6 6 5 4 4 5 4 3 3 2 3 2 3 4 4 5 6 4 3 3 3 4 5 6 6 5 6 6 6 7
4 4 3 4 4 4 6 3 4 3 6 8 8 7 6 7 6 5 5 5 5 5 5 4 5 4 4 3 2 2 3 3 4 4 5 7 6 5 4 4 4 4 6 7 6 6 6 6 6
4 4 1 1 2 3 6 2 2 4 7 8 8 6 6 5 6 6 6 6 5 5 4 4 5 4 4 3 3 3 3 4 3 3 5 7 7 6 6 4 3 4 7 8 7 7 7 6 6
3 2 1 4 3 3 7 3 5 4 9 8 7 6 6 4 4 4 5 5 5 5 5 4 5 4 3 3 2 2 3 3 3 4 5 6 8 8 7 4 4 6 7 7 5 4 5 5 5
2 2 4 4 3 4 5 5 4 4 9 8 7 6 6 5 4 4 5 6 5 5 5 5 4 4 3 3 3 3 3 3 3 4 4 6 8 9 7 5 5 8 6 5 5 4 5 5 5
4 4 3 4 3 5 5 5 4 5 8 8 7 6 6 5 5 4 5 5 5 5 6 5 4 4 3 3 3 3 3 2 3 3 4 6 7 9 8 6 6 7 5 5 5 5 4 4 4
4 2 3 4 4 4 6 5 5 5 6 6 6 6 6 5 4 4 4 6 6 5 5 5 4 3 3 2 2 2 1 1 1 2 5 6 7 9 7 5 5 5 5 6 6 5 5 4 4
2 1 1 2 1 3 4 4 4 4 7 8 8 7 7 5 3 3 5 5 5 5 5 5 4 3 3 2 2 2 2 1 1 2 3 5 7 8 7 6 5 5 5 6 6 5 3 2 2
2 3 3 3 1 1 2 2 1 2 2 4 5 7 7 8 7 6 5 5 5 5 5 5 4 3 3 3 3 3 3 2 2 1 1 2 5 6 7 7 6 6 6 6 6 6 5 3 1
3 4 3 3 2 3 2 3 5 4 2 3 4 5 6 6 7 6 5 4 4 4 4 4 4 4 3 4 4 4 3 2 2 2 1 1 3 5 6 7 7 6 5 6 6 5 4 5 3
5 4 3 3 2 1 1 3 5 3 4 6 6 6 7 7 7 7 5 5 4 4 4 3 3 3 3 3 4 4 2 2 1 1 2 1 1 3 4 6 6 6 5 5 5 5 4 4 4
1 3 4 4 4 2 5 5 4 5 8 7 6 6 6 6 6 6 5 4 3 3 4 4 4 3 3 3 3 4 4 3 2 1 2 2 1 1 3 5 5 5 5 5 5 5 5 4 4
5 5 3 3 2 5 2 3 5 5 6 8 9 8 7 7 6 5 4 4 3 3 3 4 4 3 2 3 2 3 4 4 4 3 3 2 2 2 3 4 4 4 5 5 5 4 4 4 4
2 7 6 4 4 4 3 2 4 2 4 6 7 7 7 6 6 5 5 5 4 3 3 4 4 3 3 3 2 2 3 3 3 3 3 3 3 3 3 4 4 4 5 5 5 3 4 4 4
2 3 6 5 2 1 2 1 2 3 5 5 6 6 6 5 5 5 5 5 4 4 3 4 4 4 4 4 3 2 2 3 3 3 3 3 3 2 3 4 4 4 4 5 5 4 4 4 4
4 4 4 3 2 3 2 3 4 4 4 4 5 5 4 5 5 5 4 4 4 4 3 3 3 4 3 3 3 3 3 3 3 3 3 3 3 3 3 3 3 4 4 4 5 4 4 4 4
1 1 3 3 4 4 3 5 4 8 7 7 6 5 5 5 5 5 4 4 4 3 3 2 2 3 3 3 3 3 3 3 3 3 4 4 3 3 4 4 4 4 5 5 5 5 5 5 5
3 3 4 3 3 3 3 5 3 6 5 5 5 4 4 4 4 4 4 3 2 3 2 2 2 3 4 4 3 3 3 3 3 3 3 3 4 4 4 4 4 4 4 5 6 6 6 6 6
Wind_Direction
284 311 101 66 54 56 62 29 96 77 62 62 73 83 84 69 89 130 208 146 140 144 142 134 126 119 113 108 100 98 96 94 94 92 93 93 93 93 92 90 89 88 87 88 87 84 82 80 76
322 73 71 59 77 76 38 50 85 94 129 116 80 80 79 76 93 121 136 147 140 142 143 137 131 126 119 114 108 103 102 100 96 93 94 95 94 93 94 94 91 89 89 90 88 83 81 79 76
287 126 78 68 86 124 130 128 104 96 104 99 81 59 74 108 120 144 154 145 137 140 145 143 137 131 125 119 115 112 110 105 100 97 97 98 99 97 96 96 93 92 91 91 89 84 82 79 77
68 49 57 74 85 120 145 153 118 97 67 67 96 68 56 86 139 145 141 142 140 147 153 149 143 137 133 127 122 117 116 112 106 100 100 100 102 101 99 100 97 95 94 94 90 85 84 83 82
71 70 63 71 84 76 99 119 108 98 88 84 94 94 70 48 120 134 139 141 144 157 159 154 149 145 140 135 130 127 122 118 112 106 104 104 104 103 103 104 101 99 99 97 94 91 87 84 82
58 69 84 100 104 95 84 100 94 88 101 108 103 110 121 155 137 144 143 143 148 153 152 155 155 152 149 145 142 137 131 127 120 114 111 111 111 111 108 106 106 103 101 100 97 92 90 85 82
105 92 118 134 114 94 121 109 105 111 111 126 125 109 141 184 161 147 143 141 140 139 136 144 152 153 155 155 151 145 140 137 131 126 124 123 118 118 116 111 111 109 106 104 102 96 91 86 85
129 103 90 112 116 131 147 104 118 117 118 124 118 131 168 197 159 130 126 128 129 137 139 147 145 148 153 154 157 156 152 144 138 135 132 127 122 123 122 118 116 115 111 108 106 99 93 90 88
98 82 117 163 149 158 127 97 83 86 97 86 101 141 165 155 133 118 113 114 132 142 151 151 156 159 160 166 167 161 156 150 135 121 124 119 115 120 128 127 121 120 117 111 105 101 95 89 86
89 108 167 173 158 146 119 111 119 88 81 79 83 101 129 137 138 139 142 150 153 157 165 165 168 167 165 172 166 166 163 153 143 133 125 115 113 122 127 124 118 118 115 106 103 95 89 79 74
120 147 145 121 138 128 110 103 108 116 118 158 153 152 149 147 147 152 158 154 164 165 158 165 164 158 156 161 155 157 164 148 143 144 137 125 113 114 114 110 100 92 90 89 87 81 78 78 79
104 118 131 135 122 115 122 118 98 122 180 173 158 154 150 152 158 158 158 157 152 146 155 158 150 148 152 146 146 152 148 135 135 146 140 127 115 113 115 111 104 94 96 95 88 88 83 84 86
113 122 111 124 112 115 110 114 123 140 152 137 136 138 147 152 150 150 145 147 136 128 134 147 144 146 149 138 145 137 145 146 151 146 145 141 131 130 123 113 106 105 106 100 92 87 85 86 86
154 138 135 125 117 119 115 122 121 186 144 128 134 144 151 142 139 132 131 128 129 133 136 136 132 139 141 142 142 143 143 141 139 148 156 150 141 134 127 113 106 110 114 108 101 98 93 88 88
122 107 72 236 168 160 116 62 204 193 140 139 147 147 135 136 135 141 149 144 146 147 136 138 139 123 130 138 147 142 137 128 132 146 149 144 139 132 127 121 119 119 119 110 100 93 91 92 88
78 85 232 264 190 175 128 203 252 184 144 152 154 147 142 143 143 151 142 141 141 137 136 137 130 119 115 115 129 128 133 128 126 128 130 136 140 139 127 128 128 126 118 112 108 100 92 87 86
33 194 224 264 214 167 146 199 242 175 153 159 161 155 154 147 146 152 140 142 138 134 130 118 111 117 112 103 106 107 112 110 115 121 118 127 137 139 131 134 130 127 116 113 118 104 106 104 96
224 217 220 221 228 154 162 203 217 180 160 164 167 165 163 162 175 167 141 140 128 122 121 116 110 109 107 95 82 79 77 75 91 110 117 127 134 134 130 129 127 123 116 110 113 113 101 104 106
200 200 223 232 221 166 183 200 211 184 170 169 175 172 168 176 183 152 134 131 120 114 116 120 118 114 112 102 96 100 102 93 88 101 121 130 132 131 131 134 128 128 129 135 130 118 105 95 103
182 201 260 295 237 161 183 214 211 179 182 180 175 171 171 168 157 136 121 122 129 136 134 124 122 131 134 138 142 141 134 115 111 94 108 132 132 136 141 141 142 138 132 130 130 126 116 124 123
225 188 205 225 335 55 125 339 248 228 174 159 163 167 164 163 161 145 133 129 127 138 144 140 135 131 126 120 108 90 71 58 57 62 106 138 141 144 145 146 147 150 148 150 152 148 141 158 197
232 222 191 176 122 256 171 236 263 216 194 180 170 158 161 157 151 147 143 133 143 160 152 143 145 133 125 121 123 125 128 152 193 190 165 127 145 148 148 151 152 158 155 158 168 163 155 152 172
221 231 200 194 162 296 240 173 270 191 196 209 196 176 170 163 157 155 153 151 159 155 146 147 146 139 132 129 137 136 127 156 157 139 132 128 150 158 155 158 160 165 167 170 168 160 163 161 164
187 48 30 50 81 273 234 179 256 217 206 194 188 174 163 157 156 158 154 137 128 121 133 139 141 154 151 140 141 144 148 148 141 155 174 190 188 180 174 162 167 171 172 179 176 173 172 173 165
74 85 33 356 1 253 246 163 243 238 195 176 172 170 161 157 154 153 147 144 136 136 145 153 154 155 165 161 163 173 169 163 166 181 193 195 198 205 203 177 175 178 181 181 173 170 180 178 171
176 141 158 200 226 275 347 202 261 269 138 139 149 152 146 152 159 166 167 167 163 159 155 157 167 172 178 181 191 190 178 171 178 190 197 200 205 210 201 187 183 182 178 176 166 171 188 180 179
149 169 178 157 220 260 285 290 341 47 91 110 122 125 146 158 164 174 171 166 169 171 174 172 170 175 187 188 188 183 186 186 196 198 195 199 206 211 200 190 189 191 185 178 170 180 186 174 176
159 154 94 124 179 237 262 220 212 196 166 144 141 149 158 160 162 167 168 169 177 180 181 171 173 182 198 200 200 192 191 191 197 193 197 203 209 205 192 193 197 201 195 183 175 183 186 175 180
29 77 111 137 159 169 227 262 226 186 175 165 168 170 165 167 175 176 181 186 180 170 167 174 197 193 201 210 216 203 207 202 187 195 206 205 209 202 199 200 202 205 202 189 183 194 187 184 187
172 175 147 164 232 179 183 260 282 176 170 153 157 172 173 173 185 186 182 180 175 177 191 202 213 216 216 211 211 215 214 207 200 208 215 205 204 207 204 199 198 201 198 195 194 200 194 189 190
Height
1518 1518 1517 1518 1521 1532 1535 1529 1523 1522 1523 1523 1522 1523 1527 1530 1534 1540 1537 1535 1535 1535 1535 1534 1533 1533 1532 1532 1532 1531 1531 1531 1531 1531 1530 1530 1530 1530 1530 1530 1530 1530 1530 1530 1530 1530 1530 1531 1531
1518 1518 1519 1519 1530 1544 1539 1528 1525 1523 1523 1524 1525 1526 1528 1532 1533 1535 1535 1535 1536 1535 1535 1535 1534 1533 1533 1533 1532 1532 1532 1531 1531 1531 1531 1531 1530 1530 1530 1530 1531 1531 1531 1531 1531 1531 1531 1531 1531
1519 1518 1520 1523 1533 1541 1536 1527 1524 1523 1523 1523 1527 1529 1531 1533 1534 1535 1535 1536 1536 1536 1535 1535 1535 1534 1534 1533 1533 1532 1532 1532 1532 1532 1531 1531 1531 1531 1531 1531 1531 1531 1531 1532 1532 1532 1532 1532 1532
1519 1520 1521 1528 1534 1530 1527 1525 1523 1524 1525 1526 1527 1531 1533 1535 1535 1535 1536 1536 1536 1536 1536 1535 1535 1535 1534 1534 1533 1533 1533 1533 1533 1532 1532 1532 1532 1532 1532 1532 1532 1532 1532 1532 1532 1533 1533 1533 1533
1519 1520 1527 1535 1533 1528 1525 1524 1523 1524 1526 1528 1528 1533 1535 1536 1536 1536 1536 1537 1537 1537 1536 1536 1535 1535 1535 1534 1534 1534 1534 1534 1534 1533 1533 1533 1533 1533 1533 1533 1533 1533 1533 1533 1533 1533 1534 1534 1534
1520 1522 1536 1541 1534 1528 1525 1524 1524 1526 1528 1530 1531 1533 1536 1537 1537 1537 1537 1538 1538 1537 1537 1536 1536 1536 1535 1535 1535 1535 1534 1534 1534 1534 1534 1534 1534 1533 1534 1534 1534 1534 1534 1534 1534 1535 1535 1535 1535
1521 1526 1534 1535 1534 1530 1526 1525 1525 1528 1529 1531 1531 1534 1537 1538 1537 1538 1538 1538 1539 1538 1538 1537 1537 1536 1536 1536 1535 1535 1535 1535 1535 1535 1535 1534 1534 1534 1535 1535 1535 1535 1535 1536 1536 1536 1536 1536 1536
1520 1525 1532 1534 1534 1532 1526 1525 1526 1527 1529 1531 1531 1533 1536 1537 1538 1538 1539 1539 1539 1539 1538 1538 1537 1537 1536 1536 1536 1536 1536 1536 1536 1536 1535 1535 1535 1535 1536 1536 1536 1536 1537 1537 1537 1537 1537 1537 1538
1520 1529 1536 1533 1532 1530 1525 1526 1528 1528 1529 1531 1531 1532 1534 1536 1537 1538 1539 1539 1539 1539 1539 1538 1538 1537 1537 1537 1537 1537 1537 1537 1536 1536 1536 1536 1536 1536 1536 1537 1537 1538 1538 1538 1539 1539 1539 1539 1539
1520 1532 1529 1525 1525 1526 1526 1526 1528 1530 1531 1532 1533 1534 1535 1536 1537 1538 1539 1539 1539 1539 1539 1539 1538 1538 1538 1538 1537 1537 1537 1537 1537 1537 1537 1537 1537 1537 1537 1538 1538 1539 1539 1540 1540 1540 1540 1540 1540
1520 1526 1524 1523 1523 1524 1526 1527 1528 1530 1532 1532 1532 1534 1535 1536 1537 1538 1539 1539 1539 1539 1539 1538 1538 1538 1538 1538 1538 1537 1537 1538 1538 1538 1538 1538 1538 1538 1538 1539 1539 1540 1540 1541 1541 1541 1542 1542 1542
1521 1522 1522 1523 1523 1524 1525 1527 1529 1529 1531 1531 1532 1533 1535 1536 1537 1538 1538 1539 1539 1538 1538 1538 1538 1538 1538 1538 1538 1538 1538 1538 1538 1538 1538 1539 1539 1539 1540 1540 1541 1541 1542 1542 1543 1543 1543 1543 1543
1521 1522 1522 1523 1523 1524 1526 1527 1529 1530 1531 1531 1533 1534 1535 1536 1537 1538 1538 1539 1539 1538 1538 1538 1538 1538 1538 1538 1538 1538 1538 1538 1538 1538 1539 1539 1540 1540 1540 1541 1542 1542 1543 1543 1544 1544 1544 1545 1545
1521 1521 1522 1523 1524 1525 1526 1528 1529 1530 1530 1531 1533 1534 1535 1536 1537 1538 1538 1538 1538 1538 1538 1538 1538 1538 1538 1538 1538 1538 1538 1538 1539 1539 1539 1540 1540 1541 1541 1542 1543 1543 1544 1544 1545 1545 1546 1546 1546
1520 1523 1524 1524 1523 1525 1527 1531 1530 1529 1530 1531 1532 1534 1535 1536 1536 1537 1537 1538 1538 1538 1538 1538 1538 1538 1538 1538 1538 1538 1539 1539 1539 1539 1540 1540 1541 1541 1542 1542 1543 1544 1545 1546 1546 1546 1547 1547 1548
1521 1527 1533 1526 1523 1524 1530 1538 1529 1528 1529 1531 1532 1533 1534 1535 1536 1536 1537 1537 1537 1537 1537 1537 1538 1538 1538 1538 1538 1538 1539 1539 1539 1539 1540 1540 1541 1542 1542 1543 1544 1545 1546 1546 1547 1548 1548 1548 1549
1529 1536 1535 1529 1522 1523 1528 1534 1527 1527 1528 1530 1531 1532 1533 1534 1535 1536 1536 1537 1537 1537 1537 1537 1537 1537 1537 1537 1538 1538 1538 1539 1539 1539 1540 1541 1541 1542 1543 1544 1545 1546 1546 1547 1548 1549 1549 1549 1550
1536 1534 1532 1531 1523 1523 1528 1529 1526 1526 1527 1528 1530 1531 1532 1533 1534 1535 1536 1536 1536 1536 1537 1537 1537 1537 1537 1537 1537 1538 1538 1538 1539 1540 1540 1541 1542 1542 1543 1544 1545 1546 1547 1548 1549 1549 1550 1550 1551
1525 1528 1531 1527 1520 1523 1527 1528 1525 1525 1526 1528 1529 1529 1531 1532 1533 1534 1535 1535 1536 1536 1536 1536 1537 1537 1537 1537 1537 1537 1537 1538 1539 1539 1540 1541 1542 1543 1544 1545 1545 1546 1547 1548 1549 1550 1551 1551 1552
1523 1528 1529 1525 1520 1522 1527 1527 1524 1524 1525 1525 1526 1528 1529 1531 1532 1533 1534 1534 1535 1535 1536 1536 1536 1536 1536 1536 1537 1537 1538 1538 1538 1539 1540 1541 1542 1543 1544 1544 1545 1546 1547 1548 1549 1550 1551 1552 1553
1524 1527 1527 1527 1523 1522 1527 1532 1529 1525 1525 1525 1525 1526 1527 1529 1530 1531 1533 1534 1534 1534 1535 1535 1536 1536 1536 1536 1537 1537 1538 1538 1538 1539 1539 1541 1541 1542 1543 1544 1545 1546 1547 1548 1549 1550 1551 1552 1553
1526 1519 1520 1523 1531 1537 1531 1547 1534 1527 1526 1525 1525 1525 1526 1528 1529 1530 1531 1532 1533 1534 1535 1535 1535 1536 1536 1536 1536 1536 1537 1537 1538 1538 1539 1540 1541 1542 1543 1544 1545 1546 1547 1548 1549 1550 1551 1552 1553
1519 1515 1518 1521 1528 1536 1534 1543 1538 1528 1528 1525 1524 1524 1525 1526 1528 1529 1530 1531 1533 1533 1534 1535 1535 1535 1536 1536 1536 1536 1536 1537 1537 1538 1538 1539 1540 1541 1542 1543 1544 1545 1546 1547 1548 1549 1550 1551 1552
1513 1518 1521 1527 1534 1546 1536 1541 1540 1530 1524 1522 1522 1523 1524 1525 1527 1528 1530 1531 1532 1533 1533 1534 1534 1535 1535 1535 1535 1535 1536 1536 1536 1537 1537 1538 1539 1540 1541 1542 1543 1544 1545 1546 1547 1548 1549 1550 1551
1518 1532 1546 1547 1552 1548 1532 1536 1535 1521 1517 1517 1519 1521 1523 1525 1526 1527 1528 1530 1531 1532 1532 1533 1533 1534 1534 1534 1535 1535 1535 1535 1535 1536 1536 1537 1538 1539 1540 1541 1542 1543 1544 1545 1546 1547 1548 1549 1550
1520 1529 1547 1554 1554 1546 1534 1537 1529 1517 1516 1516 1518 1520 1522 1524 1525 1526 1527 1528 1529 1530 1531 1532 1532 1533 1533 1534 1534 1534 1534 1535 1535 1535 1535 1536 1536 1537 1538 1539 1540 1542 1543 1544 1545 1546 1547 1548 1549
1521 1527 1527 1540 1540 1546 1542 1533 1525 1519 1519 1519 1520 1521 1522 1523 1525 1526 1526 1527 1528 1529 1530 1531 1531 1532 1532 1532 1533 1533 1533 1533 1534 1534 1534 1534 1535 1536 1536 1537 1538 1540 1541 1542 1543 1544 1545 1546 1547
1515 1520 1532 1539 1547 1552 1543 1538 1535 1526 1523 1521 1521 1521 1522 1523 1524 1525 1525 1526 1527 1528 1529 1530 1530 1531 1531 1532 1532 1532 1532 1532 1532 1533 1532 1533 1533 1534 1535 1536 1536 1538 1539 1540 1541 1542 1544 1545 1546
1519 1522 1528 1537 1541 1549 1551 1543 1521 1521 1520 1520 1520 1520 1521 1522 1523 1523 1524 1525 1526 1527 1528 1528 1529 1529 1529 1530 1530 1530 1531 1531 1531 1531 1531 1531 1532 1532 1533 1534 1534 1535 1536 1538 1539 1540 1541 1543 1544
1517 1521 1528 1539 1540 1541 1546 1542 1516 1517 1517 1518 1519 1520 1521 1521 1522 1522 1523 1524 1525 1525 1526 1526 1527 1527 1527 1527 1528 1528 1529 1529 1529 1529 1529 1529 1530 1530 1531 1532 1533 1533 1534 1535 1536 1538 1539 1540 1541